Flag for U.S.A. Weather past 2 weeks in Sierra Vista, Arizona, U.S.A.

Now
43 °F

Passing clouds.


Feels Like: 40 °F
Forecast: 41 / 56 °F
Wind: 5 mph from Southwest

Location: Fort Huachuca

Current Time: Feb 1, 2015 at 12:33:37 AM

Latest Report: Jan 31, 2015 at 11:56 PM


Visibility: 10 mi

Pressure: 29.95 "Hg

Humidity: 89%

Dew point: 40 °F

Location of Sierra VistaLocation

Historic Weather in Sierra Vista — Graph

°F

Sierra Vista temperature yesterday

Maximum temperature yesterday: 54 °F (at 2:56 PM)
Minimum temperature yesterday: 44 °F (at 6:56 AM)
Average temperature yesterday: 47 °F

Past Weeks' High & Low Weather Summary

 TemperatureHumidityPressure
High74 °F (Jan 19, 1:56 PM)100% (Jan 30, 3:55 AM)30.32 "Hg (Jan 30, 3:55 AM)
Low25 °F (Jan 23, 5:55 AM)9% (Jan 24, 1:56 PM)29.78 "Hg (Jan 31, 4:56 AM)
Average51 °F48%30.08 "Hg
* Reported Jan 16 10:56 PM — Jan 31 10:56 PM, Sierra Vista, Weather by CustomWeather, © 2014

Note: Actual official high and low records may vary slightly from our data, if they occured in-between our weather recording intervals... More about our weather records

Advertising

Sierra Vista weather history for previous 24 hours

 ConditionsComfort  
Time TempWeatherWind HumidityBarometerVisibility
10:56 PM
Jan 31
45 °FOvercast.5 mph93%29.94 "Hg10 mi
9:56 PM45 °FClear.No wind93%29.93 "Hg10 mi
8:56 PM45 °FLow clouds.No wind97%29.92 "Hg10 mi
7:56 PM45 °FPassing clouds.8 mph97%29.91 "Hg10 mi
6:56 PM48 °FPassing clouds.8 mph77%29.88 "Hg10 mi
5:56 PM50 °FOvercast.8 mph61%29.84 "Hg10 mi
4:56 PM51 °FBroken clouds.13 mph71%29.83 "Hg10 mi
3:56 PM54 °FMostly cloudy.12 mph62%29.80 "Hg10 mi
2:56 PM54 °FPartly sunny.8 mph69%29.78 "Hg10 mi
1:56 PM51 °FLight rain. Mostly cloudy.5 mph77%29.79 "Hg10 mi
12:56 PM51 °FMostly cloudy.No wind77%29.80 "Hg10 mi
11:56 AM48 °FLow clouds.No wind86%29.83 "Hg10 mi
10:56 AM47 °FMostly cloudy.N/A90%29.85 "Hg10 mi
9:56 AM46 °FOvercast.No wind93%29.84 "Hg10 mi
8:56 AM45 °FLight rain. Mostly cloudy.No wind97%29.83 "Hg10 mi
7:56 AM45 °FLight rain. Overcast.No wind97%29.81 "Hg10 mi
6:56 AM44 °FLight rain. Mostly cloudy.3 mph96%29.80 "Hg10 mi
5:56 AM45 °FLight rain. Overcast.3 mph97%29.79 "Hg10 mi
4:56 AM45 °FLight rain. Fog.5 mph97%29.78 "Hg6 mi
3:56 AM46 °FLight rain. Overcast.No wind100%29.79 "Hg8 mi
2:56 AM46 °FLight rain. Low clouds.No wind100%29.80 "Hg10 mi
1:56 AM46 °FLight rain. Fog.No wind100%29.82 "Hg1 mi
12:56 AM47 °FLight rain. Overcast.No wind93%29.83 "Hg10 mi
Weather by CustomWeather, © 2014

See weather overviewHow to use our weather pages